Theta_e
326 320 331 331 324 321 323 324 324 326 329 332 333 333 334 336 334 336 339 336 320 312 310 317 330 329 318 320 321 326 326 321 316 316 313 310 308 307 308 308 309 311 311 309 310 310 310 310 310
326 320 326 328 325 326 323 322 325 323 327 337 336 337 337 338 338 339 338 331 323 315 310 311 325 322 316 324 328 330 328 322 315 311 309 308 307 308 308 309 310 311 311 310 310 310 310 310 310
323 320 326 324 324 326 323 322 322 328 328 333 334 337 338 337 338 338 337 331 326 318 310 311 313 314 318 325 329 333 329 321 313 309 308 307 307 308 308 309 309 310 309 309 310 310 310 310 310
321 320 321 323 327 324 323 323 324 327 331 332 333 335 338 337 336 337 336 333 330 321 311 312 314 312 323 328 329 331 328 319 311 309 308 308 308 308 308 308 309 309 309 309 309 309 309 309 309
320 319 320 322 322 323 322 324 324 326 330 331 334 335 338 338 337 336 336 335 333 322 312 316 314 319 324 328 328 327 321 312 310 309 309 310 309 309 308 308 309 309 309 309 309 309 309 309 310
317 317 319 325 325 322 321 324 324 325 328 330 334 336 338 338 338 337 337 336 333 319 316 315 319 327 326 325 324 318 313 311 310 310 309 310 314 311 309 309 309 309 309 310 309 310 309 309 310
314 314 320 321 325 323 323 325 322 325 329 330 335 334 337 338 338 338 337 336 331 315 320 315 327 332 327 323 316 315 313 310 310 310 309 309 311 311 309 310 310 309 309 310 309 309 309 310 310
316 314 318 318 325 324 323 325 327 325 329 331 334 334 336 338 338 338 337 335 326 316 324 319 318 320 319 322 322 317 313 311 311 311 309 309 309 309 309 310 309 309 310 310 310 310 310 311 312
317 319 322 322 323 323 323 324 326 325 329 333 335 334 335 337 338 337 336 331 317 317 325 325 324 322 324 323 323 321 313 312 312 311 310 309 309 310 310 310 310 310 310 310 310 310 311 312 314
315 321 322 319 319 321 324 323 324 325 330 331 332 335 335 336 337 337 335 330 317 319 327 327 327 323 324 323 321 316 313 313 313 311 310 310 311 312 313 312 311 311 311 310 310 311 313 315 317
316 318 319 321 321 321 322 324 325 323 325 330 331 335 336 337 336 336 335 334 327 319 325 328 329 326 325 325 321 315 313 314 313 312 311 311 313 313 314 314 313 313 312 312 312 314 316 318 320
314 316 317 317 320 322 324 324 321 323 326 329 330 331 336 336 335 335 335 334 329 322 320 328 329 328 328 326 325 320 314 315 314 312 313 314 313 313 315 316 315 313 313 314 316 318 319 321 323
314 314 316 318 320 318 321 322 323 321 324 325 330 335 335 336 335 333 333 333 330 323 322 322 327 329 328 328 326 322 315 316 317 315 313 313 313 313 315 315 314 314 314 317 320 321 321 323 324
314 316 317 318 322 321 320 323 322 323 323 326 330 334 335 335 334 332 332 332 330 325 323 322 324 329 329 327 325 321 315 317 317 315 314 315 316 318 319 318 317 316 317 319 321 322 322 323 324
314 315 317 319 320 321 321 322 322 323 324 329 334 335 335 335 334 333 333 332 329 326 324 324 322 328 326 321 323 320 319 318 316 315 319 321 321 322 322 322 321 320 321 321 322 322 323 324 325
315 316 318 318 319 322 322 325 321 318 331 332 334 335 335 334 334 333 333 331 328 327 326 326 325 325 325 322 320 322 324 322 320 322 324 325 324 324 324 324 324 324 323 323 323 323 323 325 326
315 316 317 320 319 323 322 322 318 317 326 331 332 333 334 334 333 333 332 329 327 327 327 326 325 323 323 323 322 324 326 325 321 323 324 325 325 326 325 325 324 325 324 323 323 323 324 325 327
317 316 320 322 323 322 322 322 321 318 315 328 331 331 331 330 332 332 332 329 327 327 326 326 325 323 322 322 322 324 327 326 323 319 324 325 326 327 327 327 327 327 326 325 324 323 325 326 326
316 320 321 318 318 322 322 322 321 315 312 320 325 331 331 331 330 329 332 331 327 325 326 326 327 327 325 326 321 317 319 317 319 321 325 326 327 329 329 329 329 330 330 329 329 328 327 327 328
315 319 319 317 318 321 322 323 320 316 312 308 311 320 327 329 331 332 331 331 333 333 334 330 327 329 329 329 329 325 322 322 323 325 328 328 328 330 330 329 330 330 329 329 329 328 328 327 327
311 315 317 318 315 316 320 319 315 314 311 307 307 308 317 324 329 330 333 332 333 335 336 331 328 331 330 333 333 332 330 329 328 328 330 330 330 330 329 330 329 330 329 329 329 329 328 328 328
316 313 315 316 316 319 314 321 311 311 311 306 305 306 308 316 324 327 330 332 333 335 335 331 330 331 332 332 332 332 331 331 329 329 330 330 330 329 330 329 330 330 329 328 328 328 327 327 326
314 313 313 313 312 315 316 317 315 311 311 309 306 306 307 309 313 326 325 328 330 331 332 333 333 333 332 332 331 331 331 331 332 331 330 330 329 329 329 328 328 328 327 326 325 325 324 324 323
310 313 313 312 313 316 316 316 315 313 312 309 307 307 308 309 309 309 315 322 322 323 328 329 329 329 328 328 327 325 329 328 326 333 331 330 328 327 327 327 326 326 326 324 322 319 319 322 322
311 311 313 311 307 314 314 316 314 310 309 306 306 307 309 309 310 310 309 309 308 311 314 315 317 319 321 320 322 327 328 331 331 331 330 329 328 326 325 325 324 322 319 318 320 321 319 319 319
310 310 310 311 314 314 312 315 313 307 308 309 308 307 308 309 309 310 310 310 309 309 308 308 309 311 312 313 312 313 316 320 322 323 322 319 315 312 310 310 310 311 312 312 313 314 318 319 319
310 310 310 310 303 310 309 307 308 308 306 306 307 308 309 309 309 309 309 310 310 310 310 309 309 309 310 311 311 311 311 311 311 311 310 310 310 311 311 311 312 312 313 314 314 315 318 318 318
309 308 308 306 307 311 310 307 308 307 307 306 305 306 307 308 308 309 309 309 309 310 310 310 310 310 310 310 310 310 311 311 312 313 314 314 313 313 313 313 313 314 314 314 315 319 318 317 317
307 308 308 307 309 311 312 308 304 307 306 305 305 306 306 307 307 307 308 309 309 310 310 309 309 309 309 309 310 310 310 310 310 309 309 309 309 310 310 311 312 313 313 314 315 314 313 313 313
308 309 308 306 307 308 307 309 305 305 306 305 304 306 307 307 307 307 307 307 309 309 309 307 307 308 308 307 307 307 306 307 306 306 306 306 306 306 306 306 307 307 307 307 307 308 308 307 305
Wind_Speed
5 6 4 2 2 4 4 6 3 6 3 2 1 5 9 8 5 4 10 21 26 27 29 30 27 24 20 21 21 17 15 13 12 11 10 9 8 9 9 8 8 10 8 10 11 12 11 10 8
6 5 3 0 3 2 5 4 7 8 9 11 11 7 4 3 5 9 23 21 28 26 29 30 28 24 22 22 19 17 15 12 10 9 9 9 9 10 10 9 9 8 8 8 9 9 9 8 7
7 5 4 3 3 7 5 6 9 7 6 11 5 3 3 6 8 22 13 25 28 26 27 28 26 24 24 23 20 18 14 11 9 8 9 10 10 9 10 9 8 8 7 7 7 6 6 5 5
6 6 2 4 11 6 8 5 3 5 1 6 7 6 4 5 11 17 23 26 27 26 26 26 26 25 25 24 22 18 14 10 9 9 10 10 10 10 9 9 8 7 6 6 5 5 4 4 3
10 4 3 4 9 5 6 15 11 5 4 6 12 6 5 9 12 16 23 26 28 27 26 27 26 26 25 24 21 18 14 11 10 10 9 9 10 9 9 9 7 6 5 4 3 3 3 3 3
7 4 3 10 12 4 6 21 10 7 13 10 7 11 7 13 12 18 21 26 27 28 28 27 28 26 24 23 20 17 14 12 11 10 9 7 10 9 8 8 6 4 3 2 1 1 2 2 3
4 4 8 5 16 8 10 10 6 12 6 10 15 6 6 16 14 19 22 24 26 27 28 27 28 26 24 21 19 17 14 12 11 10 9 9 8 8 7 6 4 3 2 0 1 1 2 2 3
4 3 5 7 15 14 6 10 20 12 13 9 19 8 7 24 22 22 25 23 27 29 28 29 27 26 24 22 19 16 13 12 11 10 10 9 8 7 6 5 3 2 1 2 2 2 2 3 3
5 4 14 20 18 7 7 5 9 10 10 11 17 8 10 27 26 31 29 27 30 31 30 30 29 27 25 23 20 16 14 11 11 11 10 10 9 8 7 6 4 3 2 2 2 3 3 4 4
8 8 16 4 5 6 6 3 4 3 8 6 12 13 15 29 33 36 35 36 35 36 35 33 31 29 26 24 21 17 15 13 11 11 11 10 9 8 7 6 5 3 3 4 4 4 4 4 4
5 13 8 11 18 16 6 7 5 4 5 13 23 23 28 34 38 38 36 35 37 37 36 33 31 28 27 24 20 17 16 14 11 11 11 10 10 9 9 7 5 5 6 4 4 5 4 5 5
6 12 17 18 13 9 3 8 4 15 19 19 28 32 36 38 40 40 38 37 36 36 35 34 33 30 28 24 22 18 17 15 13 10 11 11 10 9 8 8 7 6 6 5 6 6 6 6 7
8 5 11 21 18 15 6 9 6 12 16 10 22 31 36 39 40 40 38 35 32 34 33 32 33 31 28 26 24 21 19 17 14 13 12 11 10 8 8 7 8 7 8 7 8 8 8 8 9
5 11 12 15 19 15 1 4 5 14 17 18 28 34 37 39 40 39 38 36 32 31 30 28 32 30 28 27 24 22 20 17 16 14 12 11 10 9 9 9 9 9 9 9 10 9 10 10 11
18 9 6 12 13 8 5 3 5 10 16 24 31 34 35 37 37 38 36 35 31 29 26 25 27 29 27 24 23 21 18 16 14 14 12 11 10 9 10 11 11 11 12 12 12 11 12 12 13
7 4 10 12 12 7 4 8 2 17 11 24 29 31 33 34 35 36 34 33 30 27 27 23 24 25 24 22 21 20 17 15 14 13 13 12 11 11 13 14 14 13 15 15 15 14 15 15 16
9 9 12 11 22 7 5 4 9 27 9 12 23 28 30 29 32 34 34 32 31 28 24 24 23 24 23 20 21 20 19 18 16 15 14 13 13 13 15 15 14 15 16 17 17 16 17 16 15
3 10 14 11 5 6 5 7 14 27 19 12 17 20 23 25 31 31 33 31 31 29 26 23 21 21 21 20 20 24 23 22 21 18 16 15 15 16 18 17 16 15 17 16 17 18 17 17 18
6 13 8 5 3 2 8 12 7 21 21 8 3 14 19 20 19 23 30 30 29 29 29 27 24 20 21 21 22 24 26 24 24 22 18 18 19 18 19 19 17 16 17 16 17 18 19 17 20
9 11 6 8 7 3 7 6 4 9 11 17 17 5 7 12 13 12 19 26 32 25 26 30 27 22 20 20 20 21 20 20 19 18 18 17 16 17 18 18 19 18 19 20 19 18 19 20 21
5 4 3 5 6 13 6 4 6 7 16 19 20 12 11 3 4 6 12 17 31 30 22 24 26 23 21 20 19 20 20 21 20 18 19 18 19 19 20 19 19 19 20 21 20 20 21 22 22
5 11 4 9 3 4 4 2 2 7 15 9 19 22 20 13 5 3 2 8 24 29 22 23 26 26 26 24 24 24 22 20 16 17 18 16 16 16 18 19 20 20 21 22 21 20 21 22 23
3 8 5 2 6 5 5 4 2 3 6 12 17 19 17 16 12 4 5 3 3 11 16 18 19 23 23 22 22 23 24 20 17 19 19 20 20 20 19 19 20 20 17 17 18 20 21 20 21
7 5 5 3 2 3 2 2 2 1 1 9 16 19 17 17 13 9 3 1 3 3 5 11 13 13 15 15 17 19 25 24 26 23 20 22 21 19 18 19 19 20 21 19 20 21 19 18 17
7 6 3 4 4 2 2 3 0 2 5 7 9 14 15 14 12 11 11 7 2 4 4 6 9 12 17 18 20 21 22 23 20 21 22 22 22 21 22 23 24 24 23 22 20 18 19 17 17
2 3 2 2 1 1 4 2 2 5 6 4 10 10 14 15 14 15 14 12 10 7 3 5 9 12 13 13 13 13 15 17 18 18 18 18 18 19 19 18 17 16 15 16 17 15 12 14 13
4 3 3 4 2 3 3 2 3 5 3 4 9 13 17 16 14 15 14 13 13 10 8 6 3 4 6 8 10 11 11 11 12 12 13 13 12 11 10 10 11 10 10 10 9 7 7 9 11
1 2 3 3 2 3 3 3 2 1 4 5 8 12 14 14 14 14 12 11 10 10 10 9 7 4 2 3 4 5 6 6 6 5 5 6 6 6 6 6 6 7 7 6 5 6 7 8 9
5 3 4 4 3 2 3 2 3 2 3 5 8 12 15 16 17 16 14 11 9 8 8 8 8 7 5 2 2 2 2 3 4 4 4 4 4 4 5 5 5 6 6 7 7 8 9 9 10
2 1 2 3 4 2 2 0 4 4 3 5 11 15 17 17 17 16 16 14 12 11 10 9 8 7 6 6 6 5 6 6 5 5 4 4 3 4 4 4 5 5 6 6 7 8 8 8 8
Wind_Direction
275 300 277 295 51 64 252 245 261 284 279 248 197 144 165 138 166 201 155 168 170 173 173 174 179 183 174 167 168 169 169 176 179 185 192 193 188 176 165 154 139 145 121 109 105 109 113 107 99
253 275 250 147 113 190 259 242 238 237 234 124 101 90 106 147 159 152 150 163 172 174 174 179 181 182 173 170 171 171 172 176 181 187 185 175 166 157 151 144 137 132 127 115 109 105 102 99 94
242 237 172 142 186 211 229 212 221 254 249 173 122 85 138 162 158 155 164 162 172 175 177 178 178 179 173 172 172 173 178 182 184 180 173 163 158 153 149 145 141 138 128 118 111 103 97 92 84
228 176 169 143 238 254 217 236 264 325 144 186 172 102 141 177 170 164 165 166 171 175 177 174 176 178 173 177 180 184 190 194 186 177 171 165 162 158 156 153 147 139 131 120 109 99 87 74 64
213 178 184 225 243 241 253 255 272 266 277 198 165 175 153 163 161 168 165 170 178 175 175 173 175 173 175 178 182 189 197 195 187 179 171 172 179 169 163 160 151 143 137 127 117 99 76 60 50
218 178 181 217 241 225 246 261 261 243 236 181 144 144 153 171 180 171 169 171 183 178 173 173 175 176 177 183 189 193 192 192 188 183 178 175 173 170 159 159 155 150 147 142 142 73 44 36 29
220 163 216 186 234 254 243 256 222 234 222 194 160 129 171 179 185 177 172 173 182 183 175 175 177 179 182 189 192 192 192 193 191 186 189 187 172 176 171 170 173 179 183 226 331 355 16 16 5
254 182 196 211 220 251 212 219 254 226 213 197 176 167 191 186 184 176 172 175 180 184 181 179 180 187 189 191 194 196 196 196 198 194 195 196 198 198 192 193 203 214 244 289 313 334 342 335 335
262 239 228 221 205 213 178 193 257 240 177 183 187 188 204 179 173 174 172 175 181 187 189 185 185 187 190 194 196 199 200 203 206 205 202 200 201 203 208 212 216 225 250 273 292 305 306 311 325
198 231 240 254 244 215 214 220 267 220 169 204 182 183 184 179 176 178 179 178 186 188 192 192 192 191 194 199 201 203 204 207 209 209 209 208 206 207 207 211 210 222 253 275 278 287 289 305 314
226 239 277 282 247 253 253 257 256 191 258 201 193 180 177 178 181 185 186 190 187 192 196 195 197 197 199 201 204 206 208 209 210 212 209 210 214 220 222 229 230 254 271 274 280 290 293 302 302
275 244 259 275 293 256 224 247 220 214 232 232 206 193 180 184 189 192 193 194 192 194 198 198 199 201 203 206 210 215 215 213 212 210 212 218 224 230 235 245 252 268 277 273 286 293 294 296 300
240 238 254 260 283 296 273 270 237 237 234 231 195 180 185 191 194 197 198 196 200 196 197 202 202 205 207 209 213 218 217 218 220 221 221 225 231 237 248 255 261 271 274 278 282 286 288 291 298
299 231 245 257 304 300 298 249 321 252 215 190 183 186 189 195 195 197 201 200 202 203 202 206 209 208 212 216 218 220 219 218 222 223 222 227 236 246 257 263 271 274 278 275 277 280 281 284 293
242 290 247 217 260 255 310 304 240 302 197 181 184 187 192 197 200 205 206 207 203 206 208 208 207 212 215 219 223 219 214 213 218 219 221 228 237 249 261 267 271 275 273 272 277 281 282 284 291
199 219 244 220 233 259 221 214 346 5 218 178 187 191 196 200 207 209 212 212 209 209 210 213 211 214 218 220 218 218 216 222 227 222 227 238 246 256 264 270 273 273 271 273 276 280 280 282 287
203 215 227 197 193 231 231 130 295 11 259 186 192 194 199 204 209 213 213 217 214 216 216 218 219 221 222 224 226 228 231 235 236 237 240 246 256 265 269 271 272 271 271 270 273 274 276 282 289
213 224 212 176 149 190 173 126 292 356 331 230 193 202 202 210 216 215 215 215 216 222 225 227 229 226 225 232 239 235 234 240 242 243 246 253 259 265 268 268 268 268 269 269 270 272 272 279 284
272 251 142 71 62 113 176 137 357 356 11 40 128 223 213 224 233 224 221 216 214 219 228 230 229 227 224 227 229 228 234 239 242 246 253 256 261 262 261 261 261 261 267 273 273 272 273 274 276
269 121 105 77 79 80 147 182 351 358 337 35 29 20 224 243 244 237 227 222 216 219 228 228 230 231 230 231 234 236 241 245 249 253 259 267 262 259 263 264 268 269 270 271 273 274 278 272 274
3 22 76 110 90 47 81 64 15 320 343 37 44 38 62 45 238 236 225 220 212 222 238 225 228 233 233 241 240 238 239 243 246 251 253 255 263 265 267 268 268 269 269 272 275 274 274 276 279
20 339 90 117 52 125 0 134 48 355 323 351 21 23 40 41 79 68 303 232 214 223 228 223 227 230 232 233 236 236 240 245 254 253 261 267 261 261 263 265 266 269 270 271 274 277 276 277 279
5 322 20 121 100 122 16 87 344 27 306 349 349 8 32 41 35 48 62 50 201 219 233 232 235 242 243 249 249 245 245 251 254 262 263 265 264 267 265 264 266 267 268 272 271 271 275 277 280
322 336 46 44 76 65 77 106 312 109 292 320 327 354 29 40 45 58 67 299 336 289 242 237 256 257 266 253 257 268 259 258 259 258 262 262 263 262 261 263 262 266 271 270 264 266 269 275 270
30 23 15 10 31 120 85 63 334 294 296 282 290 349 16 35 41 49 63 80 200 233 229 235 237 242 245 252 252 248 247 236 243 253 256 261 263 262 262 262 264 268 267 266 269 269 271 265 268
351 93 124 199 39 66 354 73 88 188 200 312 342 15 30 33 31 30 34 33 34 31 356 271 251 247 248 247 246 244 245 249 252 254 256 258 261 264 266 267 268 269 270 272 271 265 257 260 265
317 50 172 104 25 60 343 33 42 293 275 12 29 43 31 26 29 20 24 27 23 19 12 9 349 286 268 260 255 254 257 258 257 260 262 261 258 257 255 257 260 261 266 265 262 263 256 257 261
43 231 41 20 55 67 16 24 130 58 40 25 26 42 44 38 37 31 28 22 12 8 4 2 357 348 329 282 271 266 263 258 255 245 237 241 243 249 255 258 264 272 276 272 265 258 254 257 269
350 22 56 114 111 132 124 328 225 106 22 35 37 49 50 43 36 29 27 22 15 4 355 351 350 339 328 295 217 219 233 228 227 233 230 238 248 259 262 265 273 282 293 293 287 278 278 276 270
262 88 96 102 335 36 80 298 87 44 347 41 48 54 58 53 45 39 37 32 22 10 360 352 342 329 319 314 303 269 221 207 216 223 221 229 242 255 267 274 279 291 289 286 287 280 274 269 270